(179667) = 2002 QU34 = 2006 RX98

Discovered at Palomar on 2002-08-29 by NEAT.

Orbit

Orbit type: Main Belt

Note: WebGL enabled browser required.

epoch2024-03-31.0
epoch JD2460400.5
perihelion date2022-02-27.35677
perihelion JD2459637.85677
argument of perihelion (°)11.58568
ascending node (°)30.10471
inclination (°)4.79854
eccentricity0.1342063
perihelion distance (AU)2.1072618
Tisserand w.r.t. Jupiter3.5
ΔV w.r.t. Earth (km/sec)9.2
semimajor axis (AU)2.4339074
mean anomaly (°)197.95634
mean daily motion (°/day)0.25956610
aphelion distance (AU)2.761
period (years)3.8
P-vector [x]0.74710280
P-vector [y]0.60298059
P-vector [z]0.27973526
Q-vector [x]-0.66338292
Q-vector [y]0.64980710
Q-vector [z]0.37104425
absolute magnitude16.95
phase slope0.15
uncertainty0
referenceE2024-FB1
observations used397
oppositions13
arc length (days)7525
first opposition used2002
last opposition used2023
residual rms (arc-secs)0.80
perturbers coarse indicatorM-v
perturbers precise indicator003Ek
first observation date used2002-08-19.0
last observation date used2023-03-27.0
computer nameMPCLINUX
JD of orbit computation2455988.742726
perihelion JD uncertainty (days)1.3263E-04
argument of perihelion uncertainty (°)8.0245E-05
ascending node uncertainty (°)6.6263E-05
inclination uncertainty (°)9.3280E-06
eccentricity uncertainty 1.2819E-07
perihelion distance uncertainty (AU)2.9257E-07
Minimum Orbit Intersection Distances (in AU)
for orbit epoch: 2460400.5, reference: E2024-FB1
Mercury1.78457
Venus1.38527
Earth1.1159
Mars0.62017
Jupiter2.63044
Saturn6.76644
Uranus15.801
Neptune27.7059

Observations

400 total observations over interval: 2002 08 19.46828 – 2023 03 27.603172
These data are available for download (format description).

Date (UT) J2000 RA J2000 Dec Magn Location Ref
2002 08 19.46828 23 13 42.30 -12 24 27.6 20.5   644 – Palomar Mountain/NEAT MPS 82897
2002 08 19.47875 23 13 41.82 -12 24 30.3 20.3   644 – Palomar Mountain/NEAT MPS 82897
2002 08 19.48920 23 13 41.35 -12 24 33.3 20.3   644 – Palomar Mountain/NEAT MPS 82897
2002 08 29.46384 23 05 18.42 -13 08 56.4 19.5   644 – Palomar Mountain/NEAT MPS 61516
2002 08 29.47421 23 05 17.82 -13 08 58.9 19.5   644 – Palomar Mountain/NEAT MPS 61516
2002 08 29.48469 23 05 17.26 -13 09 01.4 19.4   644 – Palomar Mountain/NEAT MPS 61516
2002 08 30.46152 23 04 23.18 -13 13 18.3 19.7   644 – Palomar Mountain/NEAT MPS 61516
2002 08 30.47216 23 04 22.57 -13 13 21.0 19.4   644 – Palomar Mountain/NEAT MPS 61516
2002 08 30.48258 23 04 22.00 -13 13 23.9 20.3   644 – Palomar Mountain/NEAT MPS 61516
2002 09 03.58741 23 00 28.89 -13 30 39.9 18.8 R 608 – Haleakala-AMOS MPS 168803
2002 09 03.59839 23 00 28.21 -13 30 42.7 18.7 R 608 – Haleakala-AMOS MPS 168803
2002 09 03.60962 23 00 27.59 -13 30 44.5 18.8 R 608 – Haleakala-AMOS MPS 168803
2002 09 06.27819 22 57 53.44 -13 41 19.9 19.2   704 – Lincoln Laboratory ETS, New Mexico MPS 61516
2002 09 06.30720 22 57 51.76 -13 41 26.6 19.6   704 – Lincoln Laboratory ETS, New Mexico MPS 61516
2002 09 06.32127 22 57 50.83 -13 41 30.3 19.5   704 – Lincoln Laboratory ETS, New Mexico MPS 61516
2002 09 16.32872 22 48 21.06 -14 13 20.5 19.5   644 – Palomar Mountain/NEAT MPS 63379
2002 09 16.34968 22 48 19.87 -14 13 23.5 19.2   644 – Palomar Mountain/NEAT MPS 63379
2002 09 16.37888 22 48 18.23 -14 13 27.4 19.6   644 – Palomar Mountain/NEAT MPS 63379
2004 02 16.27803 10 05 53.88 +19 19 13.4 20.6 V 691 – Steward Observatory, Kitt Peak-Spacewatch MPS 182430
2004 02 16.30472 10 05 52.15 +19 19 20.5 20.8 V 691 – Steward Observatory, Kitt Peak-Spacewatch MPS 182430
2004 02 16.33466 10 05 50.20 +19 19 28.8 20.5 V 691 – Steward Observatory, Kitt Peak-Spacewatch MPS 182430
2004 03 16.12234 09 40 24.23 +20 26 02.3 21.4 V 691 – Steward Observatory, Kitt Peak-Spacewatch MPS 202319
2004 03 16.14897 09 40 23.24 +20 26 02.6 21.2 V 691 – Steward Observatory, Kitt Peak-Spacewatch MPS 202319
2004 03 16.17607 09 40 22.25 +20 26 02.4 21.2 V 691 – Steward Observatory, Kitt Peak-Spacewatch MPS 202319
2006 09 14.37673 01 23 56.81 +05 20 01.0   691 – Steward Observatory, Kitt Peak-Spacewatch MPS 179576
2006 09 14.40089 01 23 55.98 +05 19 59.1   691 – Steward Observatory, Kitt Peak-Spacewatch MPS 179576
2006 09 14.41817 01 23 55.39 +05 19 58.0   691 – Steward Observatory, Kitt Peak-Spacewatch MPS 179576
2006 09 20.27566 01 20 21.39 +05 10 45.6 19.2   704 – Lincoln Laboratory ETS, New Mexico MPS 179576
2006 09 20.28708 01 20 20.90 +05 10 45.0 19.9   704 – Lincoln Laboratory ETS, New Mexico MPS 179576
2006 09 20.29894 01 20 20.43 +05 10 43.2 19.8   704 – Lincoln Laboratory ETS, New Mexico MPS 179576
2006 10 15.37811 00 57 54.28 +04 07 28.3 19.2 V 703 – Catalina Sky Survey MPS 182833
2006 10 15.38449 00 57 53.89 +04 07 27.0 18.9 V 703 – Catalina Sky Survey MPS 182833
2006 10 15.39086 00 57 53.49 +04 07 26.5 18.7 V 703 – Catalina Sky Survey MPS 182833
2006 10 15.39723 00 57 53.13 +04 07 25.3 18.9 V 703 – Catalina Sky Survey MPS 182833
2006 10 19.27416 00 54 14.20 +03 58 18.6 18.8 R 644 – Palomar Mountain/NEAT MPS 183972
2006 10 19.29454 00 54 13.00 +03 58 15.5 19.3 R 644 – Palomar Mountain/NEAT MPS 183972
2006 10 19.31491 00 54 11.82 +03 58 13.0 19.5 R 644 – Palomar Mountain/NEAT MPS 183972
2006 10 20.21363 00 53 22.71 +03 56 16.8 19.0 R 644 – Palomar Mountain/NEAT MPS 185338
2006 10 20.23409 00 53 21.56 +03 56 14.4 19.1 R 644 – Palomar Mountain/NEAT MPS 185338
2006 10 20.25463 00 53 20.37 +03 56 11.5 18.9 R 644 – Palomar Mountain/NEAT MPS 185338
2006 10 21.21803 00 52 28.30 +03 54 12.2 19.1 V G96 – Mt. Lemmon Survey MPS 183972
2006 10 21.22265 00 52 28.05 +03 54 11.7 18.7 V G96 – Mt. Lemmon Survey MPS 183972
2006 10 21.22721 00 52 27.76 +03 54 11.0 19.1 V G96 – Mt. Lemmon Survey MPS 183972
2006 10 21.23021 00 52 27.65 +03 54 10.9 18.9 R 644 – Palomar Mountain/NEAT MPS 185338
2006 10 21.23188 00 52 27.51 +03 54 10.5 19.0 V G96 – Mt. Lemmon Survey MPS 183972
2006 10 21.25054 00 52 26.48 +03 54 08.6 19.2 R 644 – Palomar Mountain/NEAT MPS 185338
2006 10 21.27084 00 52 25.37 +03 54 06.2 18.8 R 644 – Palomar Mountain/NEAT MPS 185338
2006 10 31.13423 00 44 33.72 +03 40 07.9 19.6 V G96 – Mt. Lemmon Survey MPS 185338
2006 10 31.14198 00 44 33.39 +03 40 07.6 19.3 V G96 – Mt. Lemmon Survey MPS 185338
2006 10 31.14968 00 44 33.03 +03 40 07.2 19.4 V G96 – Mt. Lemmon Survey MPS 185338
2006 10 31.15749 00 44 32.71 +03 40 06.9 19.5 V G96 – Mt. Lemmon Survey MPS 185338
2006 11 02.11796 00 43 15.70 +03 38 59.7 18.8 V G96 – Mt. Lemmon Survey MPS 185338
2006 11 02.12233 00 43 15.52 +03 38 59.9 19.1 V G96 – Mt. Lemmon Survey MPS 185338
2006 11 02.12666 00 43 15.31 +03 38 58.9 18.8 V G96 – Mt. Lemmon Survey MPS 185338
2006 11 02.13105 00 43 15.13 +03 38 58.5 18.9 V G96 – Mt. Lemmon Survey MPS 185338
2006 11 02.19519 00 43 12.61 +03 38 56.2 19.6 V G96 – Mt. Lemmon Survey MPS 185338
2006 11 02.19808 00 43 12.46 +03 38 55.7 20.0 V G96 – Mt. Lemmon Survey MPS 185338
2006 11 02.20098 00 43 12.36 +03 38 56.1 19.6 V G96 – Mt. Lemmon Survey MPS 185338
2006 11 02.20389 00 43 12.25 +03 38 56.0 19.3 V G96 – Mt. Lemmon Survey MPS 185338
2006 11 02.27496 00 43 09.40 +03 38 54.2 19.1 V G96 – Mt. Lemmon Survey MPS 185338
2006 11 02.27716 00 43 09.30 +03 38 53.9 19.2 V G96 – Mt. Lemmon Survey MPS 185338
2006 11 02.27939 00 43 09.19 +03 38 53.8 18.8 V G96 – Mt. Lemmon Survey MPS 185338
2006 11 02.28160 00 43 09.08 +03 38 54.1 19.3 V G96 – Mt. Lemmon Survey MPS 185338
2006 11 11.19833 00 38 45.85 +03 41 42.9 19.2 V 703 – Catalina Sky Survey MPS 186870
2006 11 11.20736 00 38 45.63 +03 41 43.0 19.7 V G96 – Mt. Lemmon Survey MPS 186870
2006 11 11.20858 00 38 45.63 +03 41 43.1 19.3 V 703 – Catalina Sky Survey MPS 186870
2006 11 11.21181 00 38 45.56 +03 41 43.2 19.5 V G96 – Mt. Lemmon Survey MPS 186870
2006 11 11.21637 00 38 45.42 +03 41 43.7 19.7 V G96 – Mt. Lemmon Survey MPS 186870
2006 11 11.21827 00 38 45.42 +03 41 44.2 20.1 V 703 – Catalina Sky Survey MPS 186870
2006 11 11.22082 00 38 45.34 +03 41 43.7 19.6 V G96 – Mt. Lemmon Survey MPS 186870
2006 11 11.22799 00 38 45.16 +03 41 44.4 19.9 V 703 – Catalina Sky Survey MPS 186870
2006 11 21.13941 00 36 51.40 +04 00 50.8 19.9 V G96 – Mt. Lemmon Survey MPS 188505
2006 11 21.14889 00 36 51.37 +04 00 52.3 19.9 V G96 – Mt. Lemmon Survey MPS 188505
2006 11 21.15845 00 36 51.33 +04 00 54.0 19.9 V G96 – Mt. Lemmon Survey MPS 188505
2006 11 21.16801 00 36 51.30 +04 00 55.5 19.9 V G96 – Mt. Lemmon Survey MPS 188505
2006 12 17.11181 00 46 36.48 +06 06 57.1 20.7 V G96 – Mt. Lemmon Survey MPS 191981
2006 12 17.11631 00 46 36.66 +06 06 58.4 20.3 V G96 – Mt. Lemmon Survey MPS 191981
2006 12 17.12076 00 46 36.84 +06 07 00.6 20.3 V G96 – Mt. Lemmon Survey MPS 191981
2006 12 17.12520 00 46 37.05 +06 07 02.3 20.5 V G96 – Mt. Lemmon Survey MPS 191981
2007 12 05.46102 11 32 32.37 +07 44 57.3   291 – LPL/Spacewatch II MPS 229725
2007 12 05.46806 11 32 32.83 +07 44 54.2   291 – LPL/Spacewatch II MPS 229725
2007 12 05.47519 11 32 33.28 +07 44 52.5   291 – LPL/Spacewatch II MPS 229725
2008 03 02.23395 11 38 45.70 +07 56 27.5 20.1 V 691 – Steward Observatory, Kitt Peak-Spacewatch MPS 240646
2008 03 02.25522 11 38 44.56 +07 56 33.7 20.2 V 691 – Steward Observatory, Kitt Peak-Spacewatch MPS 240646
2008 03 02.27287 11 38 43.52 +07 56 39.0 19.9 V 691 – Steward Observatory, Kitt Peak-Spacewatch MPS 240646
2008 03 11.28028 11 30 01.54 +08 40 32.6 20.0 V 703 – Catalina Sky Survey MPS 242014
2008 03 11.28620 11 30 01.11 +08 40 35.1 19.9 V 703 – Catalina Sky Survey MPS 242014
2008 03 11.29208 11 30 00.75 +08 40 38.8 19.5 V 703 – Catalina Sky Survey MPS 242014
2008 03 11.29796 11 30 00.50 +08 40 39.4 19.9 V 703 – Catalina Sky Survey MPS 242014
2008 03 12.16162 11 29 09.95 +08 44 37.7 20.1 V 691 – Steward Observatory, Kitt Peak-Spacewatch MPS 243520
2008 03 12.17934 11 29 08.87 +08 44 42.6 20.1 V 691 – Steward Observatory, Kitt Peak-Spacewatch MPS 243520
2008 03 12.19759 11 29 07.76 +08 44 47.3 19.8 V 691 – Steward Observatory, Kitt Peak-Spacewatch MPS 243520
